Lid_Strength_Index
0 0 0 0 0 0 -0 -0 -0 -0 -0 -1 -1 -1 -1 -1 -0 2 6 4 3 -1 1 6 7 8 7 8 9 11 14 16 14 14 12 11 11 11 11 10 11 10 10 10 7
0 0 0 0 0 0 0 0 -0 -0 -0 -1 -1 -1 -1 -1 3 5 1 -2 -2 -1 6 8 9 9 10 9 10 12 15 14 13 13 12 11 12 10 11 11 12 11 10 9 7
0 0 0 0 0 0 0 0 0 -0 -0 -0 -1 -1 -1 1 6 7 -1 -2 -2 1 5 7 8 9 11 10 10 13 14 12 12 11 11 11 11 11 12 13 11 11 10 9 9
-0 -0 0 0 0 0 0 0 0 -0 0 -0 -1 -1 -0 4 12 6 -1 -1 -1 4 6 8 9 10 11 12 10 12 11 12 10 10 11 11 11 12 11 11 10 10 9 10 9
-0 -0 0 0 0 0 0 0 0 0 0 -0 -1 -1 4 9 8 4 -0 1 4 6 8 9 10 10 12 12 11 13 12 11 10 10 11 10 11 11 11 11 11 10 10 10 10
-0 -0 0 0 0 0 0 0 0 0 0 0 -1 -0 6 11 4 4 4 5 6 7 9 9 9 9 11 12 12 12 11 11 10 11 11 11 12 11 10 11 11 10 11 11 11
0 0 -0 0 0 0 0 0 0 0 0 0 -1 2 7 9 4 4 5 7 6 7 8 8 8 9 10 11 10 11 13 11 11 11 11 11 12 12 12 12 11 11 12 11 11
0 0 -0 0 0 0 0 0 0 0 -0 -0 -1 4 9 5 4 5 6 7 6 6 7 7 7 8 10 10 11 13 14 15 12 11 11 11 14 11 12 12 12 12 12 12 11
0 0 -0 -0 0 0 0 -0 0 -0 -0 -0 4 6 9 3 5 4 6 7 7 7 7 6 8 10 10 13 14 14 16 16 13 11 12 13 13 12 13 13 12 13 13 12 12
1 0 -0 -0 -0 -0 -0 -0 -0 0 1 1 3 9 8 8 6 4 6 6 7 8 9 9 11 12 14 14 17 16 17 16 15 13 13 14 14 12 13 13 13 13 13 13 13
1 1 0 -0 -0 -1 1 3 5 6 5 8 8 10 8 7 5 6 6 7 8 9 12 12 13 14 12 13 14 14 16 16 14 12 14 14 14 12 12 13 13 13 13 12 12
1 1 1 1 -0 -0 2 5 5 5 8 5 5 6 6 6 8 7 6 9 10 12 12 13 15 11 11 12 13 14 15 15 14 12 13 14 14 13 13 13 12 12 12 12 12
2 1 1 1 1 1 4 4 2 4 9 7 5 6 6 7 8 8 7 9 11 12 12 13 12 11 11 13 14 14 15 15 14 14 15 16 16 15 13 12 12 13 11 11 12
3 3 1 1 3 2 4 3 3 4 12 10 8 6 7 7 10 6 7 9 11 12 12 13 11 11 13 13 12 15 13 14 14 16 18 16 19 16 14 13 13 12 11 12 13
3 3 3 1 3 4 2 2 3 4 20 9 9 5 7 8 9 9 8 9 11 12 11 13 12 13 13 13 11 14 13 14 15 17 18 19 19 16 15 15 13 12 11 12 13
4 3 4 2 2 2 2 2 3 13 19 12 10 10 10 10 11 10 9 9 10 11 12 13 12 12 12 12 12 13 14 15 16 17 20 18 17 18 16 15 14 12 11 12 14
4 4 4 4 4 2 2 5 14 18 10 13 12 11 12 13 13 12 13 13 13 15 15 15 14 13 12 14 13 13 15 19 20 22 20 19 19 15 14 13 13 12 12 14 15
3 4 4 4 2 2 3 9 17 13 13 11 12 12 13 12 14 14 14 15 13 14 16 16 17 13 13 13 14 15 15 19 23 23 21 18 20 16 14 13 13 13 14 15 15
2 5 5 4 3 4 7 15 15 13 11 11 11 13 13 13 13 15 16 16 14 14 15 17 16 14 14 14 12 16 17 14 18 25 23 19 17 15 14 14 13 13 15 15 15
5 6 6 2 2 5 9 13 12 10 9 10 14 12 15 14 14 15 16 14 14 12 12 14 17 15 14 13 14 15 14 17 18 23 24 20 19 17 15 14 13 13 13 15 15
5 9 5 1 3 8 14 14 11 9 8 11 11 12 13 13 13 15 14 13 12 13 11 13 15 17 15 16 16 16 17 17 16 19 22 23 18 15 14 13 13 13 14 14 15
5 11 3 1 9 10 13 12 9 9 7 9 9 10 12 12 13 14 14 13 11 12 14 12 14 19 16 15 14 15 15 15 18 20 19 20 17 14 14 14 14 13 14 15 15
9 8 4 2 12 11 10 10 9 9 9 10 11 10 9 11 14 13 13 11 11 12 12 11 15 19 17 15 15 15 15 13 15 16 17 20 17 15 15 14 14 14 14 15 15
8 13 9 6 6 9 11 10 11 8 9 8 9 9 10 12 10 13 12 10 10 11 9 9 14 16 17 15 15 17 16 14 14 16 16 16 14 12 15 15 13 14 14 15 15
8 11 10 12 11 10 9 10 11 11 8 8 10 10 11 13 12 13 11 10 10 9 10 10 15 15 14 14 15 16 15 15 15 14 15 14 14 12 11 12 11 11 13 15 15
9 11 8 11 10 10 10 10 11 10 10 11 11 10 10 12 11 13 11 11 11 11 10 10 15 14 15 13 14 14 14 14 14 13 13 13 13 9 11 11 12 11 12 13 14
6 6 9 11 12 12 11 11 11 8 8 8 9 10 11 10 8 8 8 9 9 11 11 12 13 15 17 14 14 17 14 13 14 13 12 14 12 9 11 12 11 10 12 12 12